�N����,����,�~����,�C��,���x,�C��,����,���ϕ���,�ő�u�ԕ���,�ő厞����,���˗�,�I�_���x,�n�����x,�ő啗���N��,DTYPE
"18/02/07","00:10",0.0,-1.8,55.3,1009.3,316.1,1.7,3.2,333.2,0.00,-9.5,2.6,"00:00:16",1
"18/02/07","00:20",0.0,-2.3,56.6,1009.0,316.3,1.1,2.4,306.2,0.00,-9.7,2.6,"00:14:56",1
"18/02/07","00:30",0.0,-2.8,60.8,1009.0,312.4,1.2,2.4,322.6,0.00,-9.3,2.5,"00:23:20",1
"18/02/07","00:40",0.0,-3.1,62.1,1009.3,304.1,1.8,3.1,317.2,0.00,-9.3,2.5,"00:31:36",1
"18/02/07","00:50",0.0,-2.5,60.9,1009.0,267.0,1.8,2.7,289.4,0.00,-9.0,2.4,"00:49:12",1
"18/02/07","01:00",0.0,-2.6,59.0,1009.0,286.4,1.7,2.9,307.7,0.00,-9.5,2.6,"00:50:08",1
"18/02/07","01:10",0.0,-3.0,62.3,1009.0,307.0,2.1,2.9,316.4,0.00,-9.1,2.4,"01:03:20",1
"18/02/07","01:20",0.0,-2.8,62.1,1009.0,285.9,2.1,3.2,288.3,0.00,-9.0,2.5,"01:15:06",1
"18/02/07","01:30",0.0,-2.5,60.4,1009.0,291.4,2.6,4.4,330.1,0.00,-9.1,2.5,"01:23:04",1
"18/02/07","01:40",0.0,-2.3,59.7,1009.0,297.2,2.8,5.8,316.0,0.00,-9.0,2.5,"01:31:52",1
"18/02/07","01:50",0.0,-2.6,60.7,1009.3,298.3,2.1,3.2,322.9,0.00,-9.1,2.4,"01:43:36",1
"18/02/07","02:00",0.0,-2.7,61.4,1009.0,298.5,2.0,3.2,320.5,0.00,-9.0,2.2,"01:56:56",1
"18/02/07","02:10",0.0,-2.9,62.6,1009.3,306.5,2.1,3.6,322.2,0.00,-9.0,2.3,"02:09:44",1
"18/02/07","02:20",0.0,-3.1,63.2,1009.3,308.7,2.3,3.4,313.0,0.00,-9.1,2.2,"02:10:16",1
"18/02/07","02:30",0.0,-3.0,63.8,1009.0,317.3,2.8,3.9,319.8,0.00,-8.8,2.1,"02:22:16",1
"18/02/07","02:40",0.0,-3.2,64.6,1008.8,317.0,2.7,4.1,333.5,0.00,-8.9,2.3,"02:30:40",1
"18/02/07","02:50",0.0,-3.2,65.2,1009.0,313.7,3.0,4.9,325.7,0.00,-8.8,2.3,"02:48:40",1
"18/02/07","03:00",0.0,-3.2,65.1,1009.3,307.2,2.5,4.3,337.4,0.00,-8.8,2.3,"02:57:28",1
"18/02/07","03:10",0.0,-3.4,65.7,1009.3,313.1,2.3,4.0,316.6,0.00,-8.9,2.1,"03:08:58",1
"18/02/07","03:20",0.0,-3.4,65.9,1008.8,307.6,2.7,4.1,316.5,0.00,-8.8,2.2,"03:13:20",1
"18/02/07","03:30",0.0,-3.6,66.7,1009.3,291.6,1.8,2.5,302.4,0.00,-8.8,2.1,"03:23:36",1
"18/02/07","03:40",0.0,-3.8,67.3,1009.0,290.2,1.8,2.2,299.9,0.00,-8.9,1.7,"03:34:18",1
"18/02/07","03:50",0.0,-3.9,68.2,1008.8,298.9,2.2,3.2,314.1,0.00,-8.9,1.9,"03:46:46",1
"18/02/07","04:00",0.0,-4.4,70.5,1008.8,299.4,1.7,2.9,317.3,0.00,-8.9,2.0,"03:50:10",1
"18/02/07","04:10",0.0,-4.7,73.8,1008.8,305.0,1.6,2.8,321.0,0.00,-8.6,2.0,"04:03:48",1
"18/02/07","04:20",0.0,-5.0,75.2,1008.8,306.3,1.8,2.5,311.1,0.00,-8.7,2.0,"04:17:12",1
"18/02/07","04:30",0.0,-4.9,75.8,1008.8,314.2,1.8,2.4,314.2,0.00,-8.5,1.9,"04:24:00",1
"18/02/07","04:40",0.0,-4.8,77.1,1009.0,317.5,2.0,2.8,316.7,0.00,-8.1,1.8,"04:34:56",1
"18/02/07","04:50",0.0,-4.8,77.2,1008.8,294.3,1.6,2.4,312.1,0.00,-8.1,1.9,"04:48:18",1
"18/02/07","05:00",0.0,-4.7,76.8,1009.3,311.7,2.6,3.1,318.6,0.00,-8.1,1.8,"04:56:30",1
"18/02/07","05:10",0.0,-4.9,77.4,1009.3,283.8,1.7,2.0,279.7,0.00,-8.2,1.8,"05:06:28",1
"18/02/07","05:20",0.0,-5.2,78.3,1008.8,298.6,1.7,2.1,312.0,0.00,-8.3,1.7,"05:19:36",1
"18/02/07","05:30",0.0,-5.4,79.4,1009.0,310.2,2.1,2.9,324.5,0.00,-8.4,1.8,"05:28:48",1
"18/02/07","05:40",0.0,-5.6,80.4,1009.0,300.2,1.7,2.2,313.0,0.00,-8.4,1.9,"05:30:56",1
"18/02/07","05:50",0.0,-5.4,81.5,1009.0,321.0,1.3,2.4,332.7,0.00,-8.0,1.7,"05:48:08",1
"18/02/07","06:00",0.0,-5.3,81.5,1009.0,324.5,2.2,3.5,317.4,0.00,-7.9,1.6,"05:50:56",1
"18/02/07","06:10",0.0,-5.6,80.6,1009.3,297.5,1.5,2.7,316.9,0.00,-8.4,1.8,"06:08:48",1
"18/02/07","06:20",0.0,-5.6,82.6,1009.3,304.6,1.7,2.1,309.7,0.00,-8.0,1.7,"06:10:02",1
"18/02/07","06:30",0.0,-5.5,83.8,1009.3,309.0,2.0,2.6,324.3,0.00,-7.8,1.6,"06:29:52",1
"18/02/07","06:40",0.0,-5.4,83.5,1009.5,306.8,1.8,2.5,312.4,0.00,-7.7,1.6,"06:30:32",1
"18/02/07","06:50",0.0,-5.4,84.4,1009.3,303.4,1.8,2.6,320.7,0.00,-7.6,1.8,"06:48:00",1
"18/02/07","07:00",0.0,-5.3,84.0,1009.5,321.3,2.1,2.8,322.3,0.00,-7.5,1.8,"06:52:48",1
"18/02/07","07:10",0.0,-5.4,83.3,1009.7,305.1,2.0,2.8,317.2,0.00,-7.7,1.6,"07:02:56",1
"18/02/07","07:20",0.0,-5.4,84.6,1009.5,306.7,1.8,2.1,315.9,0.00,-7.5,1.5,"07:17:04",1
"18/02/07","07:30",0.0,-5.2,84.3,1010.0,320.8,2.3,3.2,324.0,0.00,-7.4,1.6,"07:23:44",1
"18/02/07","07:40",0.0,-4.7,84.8,1010.2,311.0,1.7,2.5,324.7,0.00,-6.8,1.5,"07:30:08",1
"18/02/07","07:50",0.0,-4.1,81.9,1010.2,311.8,1.8,2.9,323.8,0.00,-6.7,1.6,"07:46:58",1
"18/02/07","08:00",0.0,-4.0,80.6,1010.0,312.3,2.5,2.8,311.3,0.00,-6.8,1.5,"07:52:16",1
"18/02/07","08:10",0.0,-3.8,80.5,1010.4,305.7,2.0,3.2,319.9,0.01,-6.6,1.6,"08:08:58",1
"18/02/07","08:20",0.0,-3.1,77.2,1010.7,311.8,1.8,2.9,318.5,0.02,-6.5,1.6,"08:15:36",1
"18/02/07","08:30",0.0,-2.6,73.4,1010.7,319.2,1.8,2.9,326.7,0.05,-6.7,1.5,"08:24:32",1
"18/02/07","08:40",0.0,-1.7,71.1,1011.4,305.0,2.0,3.7,324.3,0.09,-6.2,1.6,"08:30:16",1
"18/02/07","08:50",0.0,-1.7,68.2,1011.6,293.0,1.5,2.5,244.0,0.12,-6.7,1.7,"08:47:36",1
"18/02/07","09:00",0.0,-1.3,67.2,1011.9,217.3,1.1,2.4,155.6,0.15,-6.6,1.8,"08:57:38",1
"18/02/07","09:10",0.0,-0.9,65.1,1012.1,224.7,1.5,2.6,203.8,0.18,-6.6,1.8,"09:06:56",1
"18/02/07","09:20",0.0,0.2,60.3,1012.1,252.8,1.3,2.7,227.6,0.20,-6.5,1.9,"09:10:08",1
"18/02/07","09:30",0.0,0.3,59.7,1012.1,331.9,3.2,4.3,327.3,0.22,-6.6,1.9,"09:28:20",1
"18/02/07","09:40",0.0,0.7,57.7,1012.3,319.9,4.0,6.6,328.1,0.25,-6.6,2.1,"09:30:48",1
"18/02/07","09:50",0.0,1.0,56.7,1012.8,332.8,4.5,5.4,358.9,0.27,-6.6,2.1,"09:49:24",1
"18/02/07","10:00",0.0,1.3,53.7,1012.6,283.0,2.8,5.1,314.8,0.29,-7.0,2.0,"09:50:36",1
"18/02/07","10:10",0.0,1.6,53.1,1012.6,224.9,1.3,1.6,227.6,0.32,-6.9,2.1,"10:00:50",1
"18/02/07","10:20",0.0,1.8,52.1,1012.8,265.1,1.7,2.2,255.1,0.34,-6.9,2.3,"10:16:36",1
"18/02/07","10:30",0.0,2.6,49.5,1012.8,293.5,1.8,3.2,303.4,0.36,-6.9,2.4,"10:27:44",1
"18/02/07","10:40",0.0,2.6,49.4,1012.8,273.3,2.1,2.8,302.6,0.38,-6.9,2.5,"10:39:38",1
"18/02/07","10:50",0.0,3.2,48.4,1012.8,287.0,2.0,5.0,343.1,0.39,-6.6,2.6,"10:44:50",1
"18/02/07","11:00",0.0,3.0,48.4,1012.8,277.1,2.0,3.4,314.0,0.41,-6.8,2.8,"10:58:08",1
"18/02/07","11:10",0.0,3.7,47.4,1012.3,288.6,2.0,3.6,241.6,0.42,-6.4,3.1,"11:05:12",1
"18/02/07","11:20",0.0,3.9,47.4,1012.6,298.3,2.0,4.1,310.2,0.43,-6.2,3.5,"11:19:14",1
"18/02/07","11:30",0.0,4.3,46.5,1012.3,291.4,2.8,5.9,323.0,0.44,-6.1,3.5,"11:28:48",1
"18/02/07","11:40",0.0,4.3,45.0,1012.6,269.5,2.7,6.0,327.6,0.45,-6.5,3.8,"11:30:50",1
"18/02/07","11:50",0.0,4.6,45.3,1012.1,295.5,2.6,5.0,307.1,0.46,-6.2,4.0,"11:45:06",1
"18/02/07","12:00",0.0,4.4,43.5,1012.1,261.7,2.7,5.1,311.6,0.46,-6.9,4.2,"11:50:32",1
"18/02/07","12:10",0.0,4.8,41.8,1012.1,262.7,2.6,4.2,239.3,0.47,-7.0,4.6,"12:00:52",1
"18/02/07","12:20",0.0,4.5,41.3,1011.4,271.4,2.7,4.9,265.1,0.47,-7.5,4.8,"12:14:38",1
"18/02/07","12:30",0.0,5.1,41.2,1011.9,285.1,2.5,5.4,328.9,0.47,-7.0,5.1,"12:27:48",1
"18/02/07","12:40",0.0,5.2,41.6,1011.4,253.3,2.6,4.5,236.5,0.47,-6.7,5.2,"12:37:44",1
"18/02/07","12:50",0.0,5.6,39.6,1011.2,249.9,2.7,5.0,236.2,0.47,-7.0,5.6,"12:44:14",1
"18/02/07","13:00",0.0,6.1,39.1,1011.6,253.0,2.7,4.7,231.6,0.46,-6.7,5.5,"12:53:20",1
"18/02/07","13:10",0.0,6.1,37.2,1011.2,263.3,2.8,5.9,197.3,0.46,-7.4,5.8,"13:05:26",1
"18/02/07","13:20",0.0,6.4,37.2,1011.2,287.3,3.1,4.7,330.6,0.45,-7.1,5.9,"13:11:54",1
"18/02/07","13:30",0.0,6.6,37.4,1011.2,273.5,2.8,5.7,314.6,0.39,-6.9,6.2,"13:27:56",1
"18/02/07","13:40",0.0,6.1,36.2,1011.2,274.3,2.8,5.4,331.7,0.34,-7.7,6.3,"13:32:58",1
"18/02/07","13:50",0.0,6.5,35.0,1011.2,283.1,3.0,6.6,345.7,0.32,-7.8,6.2,"13:40:56",1
"18/02/07","14:00",0.0,6.7,35.2,1011.2,284.0,3.1,8.5,343.7,0.43,-7.6,6.6,"13:58:22",1
"18/02/07","14:10",0.0,6.0,37.1,1011.2,316.1,4.6,7.9,320.2,0.31,-7.5,6.4,"14:04:40",1
"18/02/07","14:20",0.0,6.7,36.1,1010.9,304.8,3.5,7.7,317.0,0.42,-7.2,6.6,"14:14:20",1
"18/02/07","14:30",0.0,5.9,37.3,1010.9,322.9,5.1,8.2,323.3,0.32,-7.5,6.7,"14:21:30",1
"18/02/07","14:40",0.0,5.8,38.5,1011.2,319.9,4.7,8.1,324.9,0.30,-7.2,6.7,"14:37:16",1
"18/02/07","14:50",0.0,6.2,37.6,1010.9,322.5,4.5,8.0,339.0,0.20,-7.2,6.7,"14:40:52",1
"18/02/07","15:00",0.0,6.0,38.7,1011.2,290.5,3.2,6.0,279.2,0.29,-7.0,6.7,"14:57:34",1
"18/02/07","15:10",0.0,6.2,37.9,1011.2,283.3,3.5,5.6,311.2,0.31,-7.1,6.7,"15:06:30",1
"18/02/07","15:20",0.0,6.0,37.9,1011.2,273.6,3.4,7.2,236.2,0.32,-7.2,7.0,"15:18:08",1
"18/02/07","15:30",0.0,6.5,38.5,1010.9,274.6,2.8,5.5,312.9,0.22,-6.6,6.8,"15:26:06",1
"18/02/07","15:40",0.0,5.8,38.8,1010.9,285.7,3.7,5.5,318.1,0.07,-7.1,6.8,"15:33:28",1
"18/02/07","15:50",0.0,5.6,39.9,1010.7,290.2,2.8,5.2,300.6,0.06,-6.9,6.7,"15:42:20",1
"18/02/07","16:00",0.0,5.3,41.0,1011.4,304.3,3.7,5.5,317.7,0.05,-6.8,6.5,"15:55:18",1
"18/02/07","16:10",0.0,5.1,42.1,1011.2,326.7,3.5,6.3,318.6,0.03,-6.7,6.5,"16:00:56",1
"18/02/07","16:20",0.0,5.1,42.3,1011.4,322.6,2.7,5.1,340.3,0.02,-6.6,6.4,"16:11:16",1
"18/02/07","16:30",0.0,5.1,42.8,1011.4,315.4,2.6,4.3,339.1,0.03,-6.5,6.3,"16:21:38",1
"18/02/07","16:40",0.0,5.1,42.7,1011.4,311.2,2.5,3.4,315.2,0.01,-6.5,6.2,"16:32:48",1
"18/02/07","16:50",0.0,5.0,42.9,1011.4,278.3,2.2,3.3,302.1,0.00,-6.5,6.1,"16:46:24",1
"18/02/07","17:00",0.0,5.0,42.5,1011.6,295.2,3.0,4.4,345.0,0.01,-6.6,6.2,"16:56:46",1
"18/02/07","17:10",0.0,4.9,42.7,1011.6,288.9,2.6,4.3,323.0,0.01,-6.7,6.1,"17:01:14",1
"18/02/07","17:20",0.0,4.8,43.5,1011.9,283.3,2.2,4.4,293.2,0.00,-6.5,5.8,"17:10:56",1
"18/02/07","17:30",0.0,4.7,44.2,1011.9,290.3,2.5,5.5,327.7,0.00,-6.4,5.8,"17:20:42",1
"18/02/07","17:40",0.0,4.6,45.8,1012.1,291.8,2.7,5.2,336.0,0.00,-6.0,5.9,"17:36:28",1
"18/02/07","17:50",0.0,4.5,47.2,1012.1,275.0,2.0,3.5,278.8,0.00,-5.7,5.4,"17:49:26",1
"18/02/07","18:00",0.0,4.2,48.7,1012.6,260.2,2.8,4.9,278.8,0.00,-5.6,5.7,"17:56:52",1
"18/02/07","18:10",0.0,4.0,50.2,1012.3,262.7,2.6,4.1,259.6,0.00,-5.4,5.5,"18:06:52",1
"18/02/07","18:20",0.0,3.9,50.9,1012.6,258.6,2.6,5.4,239.3,0.00,-5.3,5.4,"18:19:04",1
"18/02/07","18:30",0.0,3.8,51.3,1012.3,264.2,2.6,4.5,263.8,0.00,-5.3,5.4,"18:22:10",1
"18/02/07","18:40",0.0,3.4,52.6,1012.6,269.8,2.0,3.7,234.4,0.00,-5.3,5.2,"18:33:12",1
"18/02/07","18:50",0.0,3.2,54.9,1012.3,273.4,2.1,3.7,275.9,0.00,-4.9,5.2,"18:47:18",1
"18/02/07","19:00",0.0,2.9,55.2,1012.8,281.3,2.2,4.1,263.8,0.00,-5.2,5.0,"18:51:24",1
"18/02/07","19:10",0.0,2.7,56.6,1013.0,290.4,2.3,4.0,319.8,0.00,-5.0,4.8,"19:02:12",1
"18/02/07","19:20",0.0,2.3,57.9,1012.8,304.4,2.7,4.0,313.3,0.00,-5.1,4.7,"19:11:00",1
"18/02/07","19:30",0.0,1.8,60.6,1012.8,308.1,2.8,3.9,317.7,0.00,-5.0,4.7,"19:28:48",1
"18/02/07","19:40",0.0,1.3,63.1,1012.6,307.4,2.7,4.7,322.9,0.00,-4.9,4.7,"19:39:28",1
"18/02/07","19:50",0.0,0.8,64.9,1012.6,299.0,2.2,4.1,328.5,0.00,-5.0,4.6,"19:40:32",1
"18/02/07","20:00",0.0,0.5,67.2,1012.6,307.1,2.2,2.9,321.7,0.00,-4.8,4.4,"19:56:24",1
"18/02/07","20:10",0.0,0.4,68.3,1012.6,315.8,2.3,3.2,324.3,0.00,-4.7,4.4,"20:02:08",1
"18/02/07","20:20",0.0,0.1,70.1,1012.6,316.2,1.7,2.5,327.2,0.00,-4.7,4.3,"20:16:56",1
"18/02/07","20:30",0.0,-0.2,72.3,1012.3,328.0,0.8,1.4,335.7,0.00,-4.5,4.1,"20:24:08",1
"18/02/07","20:40",0.0,-0.3,74.1,1012.3,339.8,1.0,1.6,339.7,0.00,-4.3,4.2,"20:35:28",1
"18/02/07","20:50",0.0,-0.7,75.0,1012.1,327.6,1.2,1.6,334.4,0.00,-4.5,4.1,"20:40:08",1
"18/02/07","21:00",0.0,-1.1,75.8,1012.3,333.8,1.2,1.7,306.5,0.00,-4.8,3.9,"20:56:48",1
"18/02/07","21:10",0.0,-1.3,78.1,1012.3,338.8,1.0,1.6,344.4,0.00,-4.6,3.8,"21:06:48",1
"18/02/07","21:20",0.0,-1.8,78.4,1011.9,309.9,1.2,1.8,320.0,0.00,-5.0,3.7,"21:13:04",1
"18/02/07","21:30",0.0,-1.9,83.1,1012.1,308.1,1.5,2.2,329.9,0.00,-4.3,3.7,"21:24:16",1
"18/02/07","21:40",0.0,-1.9,82.7,1012.3,334.0,1.8,2.2,345.1,0.00,-4.4,3.7,"21:30:32",1
"18/02/07","21:50",0.0,-2.2,83.4,1012.1,309.3,1.3,2.4,322.4,0.00,-4.6,3.7,"21:40:02",1
"18/02/07","22:00",0.0,-2.1,85.7,1012.6,322.3,2.1,2.8,324.4,0.00,-4.1,3.4,"21:57:04",1
"18/02/07","22:10",0.0,-2.0,86.5,1012.6,315.8,2.0,2.5,323.1,0.00,-3.9,3.3,"22:06:00",1
"18/02/07","22:20",0.0,-2.2,85.9,1011.9,307.7,1.6,2.1,319.9,0.00,-4.2,3.5,"22:12:24",1
"18/02/07","22:30",0.0,-2.0,87.5,1011.6,323.1,2.1,2.7,323.6,0.00,-3.8,3.3,"22:24:40",1
"18/02/07","22:40",0.0,-2.1,86.7,1011.6,324.6,2.0,2.2,326.1,0.00,-4.0,3.1,"22:30:24",1
"18/02/07","22:50",0.0,-2.1,87.6,1011.4,304.9,1.8,2.2,305.4,0.00,-3.8,3.2,"22:41:52",1
"18/02/07","23:00",0.0,-2.1,87.3,1011.4,308.7,1.8,2.7,315.1,0.00,-3.9,3.0,"22:53:12",1
"18/02/07","23:10",0.0,-2.0,88.3,1011.4,297.6,1.3,2.1,309.9,0.00,-3.6,3.1,"23:08:16",1
"18/02/07","23:20",0.0,-2.0,87.6,1011.9,313.9,1.6,2.6,320.2,0.00,-3.7,3.1,"23:11:28",1
"18/02/07","23:30",0.0,-2.0,87.4,1011.6,311.1,2.1,2.8,320.5,0.00,-3.8,2.9,"23:22:18",1
"18/02/07","23:40",0.0,-2.0,86.6,1011.6,296.5,2.0,3.1,323.3,0.00,-3.9,2.7,"23:33:34",1
"18/02/07","23:50",0.0,-2.2,87.8,1011.6,288.2,1.6,2.0,307.5,0.00,-3.9,3.0,"23:43:18",1
"18/02/07","24:00",0.0,-2.2,87.8,1011.4,298.3,1.6,2.1,321.6,0.00,-3.9,2.7,"23:57:34",1
